Погода в Мнихово Градиште

Чехия     50°31′17″N   14°58′24″E
темп.,
°C
ветер,
м/с
пор.,
м/с
влажн.,
%
обл.,
%
осадки,
мм/ч
давл.,
гПа
погр.,
м
27 октября, ср
ср2723:00+8зюз2391100 0.0 102558
02:00+6ююв1190100 0.0 102510
05:00+6ююв1193100 0.0 102610
08:00+5юв1195100 0.0 102710
11:00+10ю237888 0.0 1027349
14:00+14юз2358100 0.0 1025756
17:00+12ююв1164100 0.0 102510
20:00+9вюв117619 0.0 102610
28 октября, чт
чт2823:00+8в11835 0.0 102610
02:00+7в22865 0.0 102611
05:00+6вюв228929 0.0 102513
08:00+5вюв22895 0.0 102617
11:00+11юв45645 0.0 1025349
14:00+14юв57505 0.0 1023739
17:00+13юв48545 0.0 1021171
20:00+8вюв410725 0.0 1022175
29 октября, пт
пт2923:00+7вюв411715 0.0 1022204
02:00+5вюв410686 0.0 1021188
05:00+4вюв396897 0.0 1020153
08:00+4вюв397087 0.0 1020167
11:00+10юв6134848 0.0 1018729
14:00+15юв71135100 0.0 10161004
17:00+12вюв5114627 0.0 1014319
20:00+8вюв411625 0.0 1014213
30 октября, сб
сб3023:00+6вюв39680 0.0 1015165
02:00+6вюв49725 0.0 1015159
05:00+5вюв35796 0.0 101776
08:00+5юв238093 0.0 101853
11:00+9юв456348 0.0 1019356
14:00+12юв45520 0.0 1018578
17:00+11в3761100 0.0 1017144
20:00+8в3474100 0.0 101762
31 октября, вс
вс3123:00+7в4977100 0.0 1015181
02:00+8в41071100 0.0 1013218
04:00+8вюв31079100 0.0 1010199
07:00+8вюв41085100 0.0 1009215
10:00+11юв5774100 0.0 1009461
13:00+14ююв456795 0.0 1007531
16:00+12ю2279100 0.4 100731
19:00+11ююв228472 0.5 100858